Time,TemperatureF,DewpointF,PressureIn,WindDirection,WindDirectionDegrees,WindSpeedMPH,WindSpeedGustMPH,Humidity,HourlyPrecipIn,Conditions,Clouds,dailyrainin,SoftwareType,DateUTC
2013-08-16 00:10:00,68.4,67.0,29.94,SSW,201,1.0,1.0,94,0.00,,,0.00,weatherlink.com 1.10,2013-08-16 05:10:00,
2013-08-16 00:25:00,68.7,67.0,29.95,SSW,200,0.0,1.0,94,0.00,,,0.00,weatherlink.com 1.10,2013-08-16 05:25:00,
2013-08-16 00:40:00,69.0,67.0,29.94,SSW,200,0.0,1.0,94,0.00,,,0.00,weatherlink.com 1.10,2013-08-16 05:40:00,
2013-08-16 00:55:00,68.8,67.0,29.93,SSW,200,0.0,0.0,94,0.00,,,0.00,weatherlink.com 1.10,2013-08-16 05:55:00,
2013-08-16 01:10:00,68.7,67.0,29.93,NW,309,0.0,3.0,94,0.00,,,0.00,weatherlink.com 1.10,2013-08-16 06:10:00,
2013-08-16 01:25:00,68.5,67.0,29.93,WSW,243,0.0,0.0,94,0.00,,,0.00,weatherlink.com 1.10,2013-08-16 06:25:00,
2013-08-16 01:40:00,68.4,67.0,29.93,West,278,0.0,2.0,94,0.00,,,0.00,weatherlink.com 1.10,2013-08-16 06:40:00,
2013-08-16 01:55:00,68.4,67.0,29.92,WNW,300,2.0,2.0,94,0.00,,,0.00,weatherlink.com 1.10,2013-08-16 06:55:00,
2013-08-16 02:10:00,68.2,67.0,29.91,WNW,285,0.0,0.0,95,0.00,,,0.00,weatherlink.com 1.10,2013-08-16 07:10:00,
2013-08-16 02:25:00,68.1,67.0,29.91,SW,221,0.0,1.0,95,0.00,,,0.00,weatherlink.com 1.10,2013-08-16 07:25:00,
2013-08-16 02:40:00,67.9,67.0,29.91,SW,214,0.0,1.0,95,0.00,,,0.00,weatherlink.com 1.10,2013-08-16 07:40:00,
2013-08-16 02:55:00,67.6,66.0,29.91,SW,214,0.0,0.0,95,0.00,,,0.00,weatherlink.com 1.10,2013-08-16 07:55:00,
2013-08-16 03:10:00,67.6,67.0,29.91,SW,215,0.0,1.0,96,0.01,,,0.01,weatherlink.com 1.10,2013-08-16 08:10:00,
2013-08-16 03:25:00,67.3,66.0,29.91,SW,215,0.0,0.0,95,0.01,,,0.01,weatherlink.com 1.10,2013-08-16 08:25:00,
2013-08-16 03:40:00,67.1,66.0,29.90,SW,215,0.0,1.0,95,0.01,,,0.01,weatherlink.com 1.10,2013-08-16 08:40:00,
2013-08-16 03:55:00,66.8,65.0,29.90,SW,215,0.0,0.0,95,0.01,,,0.01,weatherlink.com 1.10,2013-08-16 08:55:00,
2013-08-16 04:10:00,66.5,65.0,29.90,SW,215,0.0,0.0,96,0.00,,,0.01,weatherlink.com 1.10,2013-08-16 09:10:00,
2013-08-16 04:25:00,66.6,66.0,29.91,SW,214,0.0,0.0,96,0.00,,,0.01,weatherlink.com 1.10,2013-08-16 09:25:00,
2013-08-16 04:40:00,66.4,65.0,29.91,SW,215,0.0,0.0,96,0.00,,,0.01,weatherlink.com 1.10,2013-08-16 09:40:00,
2013-08-16 04:55:00,66.3,65.0,29.91,SW,215,0.0,1.0,96,0.00,,,0.01,weatherlink.com 1.10,2013-08-16 09:55:00,
2013-08-16 05:10:00,66.0,65.0,29.91,SW,215,0.0,0.0,96,0.00,,,0.01,weatherlink.com 1.10,2013-08-16 10:10:00,
2013-08-16 05:25:00,65.9,65.0,29.90,SW,215,0.0,1.0,96,0.00,,,0.01,weatherlink.com 1.10,2013-08-16 10:25:00,
2013-08-16 05:40:00,65.9,65.0,29.90,SW,214,0.0,0.0,96,0.00,,,0.01,weatherlink.com 1.10,2013-08-16 10:40:00,
2013-08-16 05:55:00,65.4,64.0,29.90,SW,214,0.0,0.0,96,0.00,,,0.01,weatherlink.com 1.10,2013-08-16 10:55:00,
2013-08-16 06:10:00,65.3,64.0,29.90,SW,215,0.0,1.0,96,0.00,,,0.01,weatherlink.com 1.10,2013-08-16 11:10:00,
2013-08-16 06:25:00,65.0,64.0,29.91,SW,214,0.0,0.0,96,0.00,,,0.01,weatherlink.com 1.10,2013-08-16 11:25:00,
2013-08-16 06:40:00,64.7,64.0,29.91,SW,214,0.0,0.0,96,0.00,,,0.01,weatherlink.com 1.10,2013-08-16 11:40:00,
2013-08-16 06:55:00,64.7,64.0,29.91,SW,214,0.0,0.0,96,0.00,,,0.01,weatherlink.com 1.10,2013-08-16 11:55:00,
2013-08-16 07:10:00,64.7,64.0,29.92,SW,215,0.0,0.0,97,0.00,,,0.01,weatherlink.com 1.10,2013-08-16 12:10:00,
2013-08-16 07:25:00,65.1,64.0,29.92,SW,214,0.0,0.0,97,0.00,,,0.01,weatherlink.com 1.10,2013-08-16 12:25:00,
2013-08-16 07:40:00,66.1,65.0,29.93,SW,214,0.0,0.0,97,0.00,,,0.01,weatherlink.com 1.10,2013-08-16 12:40:00,
2013-08-16 07:55:00,67.3,67.0,29.93,SW,214,0.0,0.0,97,0.00,,,0.01,weatherlink.com 1.10,2013-08-16 12:55:00,
2013-08-16 08:10:00,69.3,69.0,29.93,SW,226,1.0,1.0,97,0.00,,,0.01,weatherlink.com 1.10,2013-08-16 13:10:00,
2013-08-16 08:25:00,72.3,71.0,29.94,SW,225,0.0,0.0,95,0.00,,,0.01,weatherlink.com 1.10,2013-08-16 13:25:00,
2013-08-16 08:40:00,76.1,73.0,29.95,SW,226,0.0,0.0,91,0.00,,,0.01,weatherlink.com 1.10,2013-08-16 13:40:00,
2013-08-16 08:55:00,78.4,71.0,29.96,North,360,0.0,2.0,79,0.00,,,0.01,weatherlink.com 1.10,2013-08-16 13:55:00,
2013-08-16 09:10:00,80.8,74.0,29.95,North,360,0.0,1.0,79,0.00,,,0.01,weatherlink.com 1.10,2013-08-16 14:10:00,
2013-08-16 09:26:00,81.2,76.0,29.96,NNE,29,0.0,1.0,83,0.00,,,0.01,weatherlink.com 1.10,2013-08-16 14:26:00,
2013-08-16 09:41:00,82.8,74.0,29.97,North,354,0.0,2.0,75,0.00,,,0.01,weatherlink.com 1.10,2013-08-16 14:41:00,
2013-08-16 09:56:00,81.5,73.0,29.97,NNW,330,3.0,7.0,74,0.00,,,0.01,weatherlink.com 1.10,2013-08-16 14:56:00,
2013-08-16 10:11:00,81.1,72.0,29.97,WNW,295,3.0,4.0,74,0.00,,,0.01,weatherlink.com 1.10,2013-08-16 15:11:00,
2013-08-16 10:26:00,81.9,72.0,29.97,NNE,32,2.0,7.0,71,0.00,,,0.01,weatherlink.com 1.10,2013-08-16 15:26:00,
2013-08-16 10:41:00,81.3,71.0,29.99,NW,305,3.0,9.0,71,0.00,,,0.01,weatherlink.com 1.10,2013-08-16 15:41:00,
2013-08-16 10:56:00,75.0,67.0,30.02,NE,40,0.0,11.0,77,0.00,,,0.01,weatherlink.com 1.10,2013-08-16 15:56:00,
2013-08-16 11:11:00,69.9,66.0,30.02,WNW,299,0.0,0.0,88,0.01,,,0.02,weatherlink.com 1.10,2013-08-16 16:11:00,
2013-08-16 11:26:00,70.5,67.0,30.02,North,8,7.0,7.0,87,0.01,,,0.02,weatherlink.com 1.10,2013-08-16 16:26:00,
2013-08-16 11:41:00,72.5,67.0,30.02,NW,312,10.0,15.0,83,0.01,,,0.02,weatherlink.com 1.10,2013-08-16 16:41:00,
2013-08-16 11:56:00,74.8,68.0,30.01,NW,312,7.0,14.0,79,0.01,,,0.02,weatherlink.com 1.10,2013-08-16 16:56:00,
2013-08-16 12:11:00,76.3,68.0,30.00,NW,326,9.0,16.0,75,0.00,,,0.02,weatherlink.com 1.10,2013-08-16 17:11:00,
2013-08-16 12:26:00,79.9,70.0,29.99,North,354,8.0,13.0,71,0.00,,,0.02,weatherlink.com 1.10,2013-08-16 17:26:00,
2013-08-16 12:41:00,80.3,68.0,29.98,NW,308,8.0,17.0,67,0.00,,,0.02,weatherlink.com 1.10,2013-08-16 17:41:00,
2013-08-16 12:56:00,82.4,68.0,29.96,NW,304,10.0,12.0,61,0.00,,,0.02,weatherlink.com 1.10,2013-08-16 17:56:00,
2013-08-16 13:11:00,81.9,67.0,29.96,NW,318,6.0,15.0,60,0.00,,,0.02,weatherlink.com 1.10,2013-08-16 18:11:00,
2013-08-16 13:26:00,83.1,67.0,29.95,WNW,295,3.0,13.0,59,0.00,,,0.02,weatherlink.com 1.10,2013-08-16 18:26:00,
2013-08-16 13:41:00,85.0,65.0,29.94,NNW,341,4.0,11.0,51,0.00,,,0.02,weatherlink.com 1.10,2013-08-16 18:41:00,
2013-08-16 13:56:00,84.1,65.0,29.94,North,360,4.0,14.0,52,0.00,,,0.02,weatherlink.com 1.10,2013-08-16 18:56:00,
2013-08-16 14:11:00,84.8,64.0,29.93,NW,324,4.0,15.0,50,0.00,,,0.02,weatherlink.com 1.10,2013-08-16 19:11:00,
2013-08-16 14:26:00,85.1,66.0,29.92,SW,214,1.0,9.0,53,0.00,,,0.02,weatherlink.com 1.10,2013-08-16 19:26:00,
2013-08-16 14:41:00,87.5,65.0,29.91,North,359,2.0,6.0,47,0.00,,,0.02,weatherlink.com 1.10,2013-08-16 19:41:00,
2013-08-16 14:56:00,87.3,62.0,29.89,West,262,4.0,5.0,43,0.00,,,0.02,weatherlink.com 1.10,2013-08-16 19:56:00,
2013-08-16 15:11:00,88.6,61.0,29.88,WSW,245,0.0,5.0,39,0.00,,,0.02,weatherlink.com 1.10,2013-08-16 20:11:00,
2013-08-16 15:26:00,89.7,60.0,29.88,NW,307,5.0,5.0,37,0.00,,,0.02,weatherlink.com 1.10,2013-08-16 20:26:00,
2013-08-16 15:41:00,90.9,60.0,29.87,SW,236,0.0,3.0,36,0.00,,,0.02,weatherlink.com 1.10,2013-08-16 20:41:00,
2013-08-16 15:56:00,90.6,60.0,29.87,NE,51,3.0,7.0,36,0.00,,,0.02,weatherlink.com 1.10,2013-08-16 20:56:00,
2013-08-16 16:11:00,91.7,61.0,29.87,NE,35,4.0,8.0,36,0.00,,,0.02,weatherlink.com 1.10,2013-08-16 21:11:00,
2013-08-16 16:26:00,91.8,61.0,29.88,NNE,32,5.0,12.0,36,0.00,,,0.02,weatherlink.com 1.10,2013-08-16 21:26:00,
2013-08-16 16:41:00,91.6,61.0,29.88,NNW,329,7.0,11.0,36,0.00,,,0.02,weatherlink.com 1.10,2013-08-16 21:41:00,
2013-08-16 16:56:00,91.4,59.0,29.88,NW,307,7.0,15.0,34,0.00,,,0.02,weatherlink.com 1.10,2013-08-16 21:56:00,
2013-08-16 17:11:00,92.3,59.0,29.88,NNW,331,3.0,9.0,33,0.00,,,0.02,weatherlink.com 1.10,2013-08-16 22:11:00,
2013-08-16 17:26:00,92.7,55.0,29.88,NW,324,5.0,10.0,28,0.00,,,0.02,weatherlink.com 1.10,2013-08-16 22:26:00,
2013-08-16 17:41:00,92.1,55.0,29.87,NNE,23,6.0,18.0,28,0.00,,,0.02,weatherlink.com 1.10,2013-08-16 22:41:00,
2013-08-16 17:56:00,91.3,58.0,29.88,NNE,15,3.0,14.0,33,0.00,,,0.02,weatherlink.com 1.10,2013-08-16 22:56:00,
2013-08-16 18:11:00,90.6,57.0,29.88,NNE,13,7.0,12.0,32,0.00,,,0.02,weatherlink.com 1.10,2013-08-16 23:11:00,
2013-08-16 18:26:00,89.5,60.0,29.87,NNE,18,7.0,12.0,37,0.00,,,0.02,weatherlink.com 1.10,2013-08-16 23:26:00,
2013-08-16 18:41:00,89.1,60.0,29.87,NW,323,4.0,10.0,38,0.00,,,0.02,weatherlink.com 1.10,2013-08-16 23:41:00,
2013-08-16 18:56:00,88.5,63.0,29.87,NNW,328,5.0,9.0,42,0.00,,,0.02,weatherlink.com 1.10,2013-08-16 23:56:00,
2013-08-16 19:11:00,88.3,63.0,29.87,ENE,58,1.0,7.0,43,0.00,,,0.02,weatherlink.com 1.10,2013-08-17 00:11:00,
2013-08-16 19:26:00,87.6,64.0,29.88,ENE,59,3.0,7.0,45,0.00,,,0.02,weatherlink.com 1.10,2013-08-17 00:26:00,
2013-08-16 19:41:00,86.3,64.0,29.88,NW,321,5.0,7.0,47,0.00,,,0.02,weatherlink.com 1.10,2013-08-17 00:41:00,
2013-08-16 19:57:00,84.9,64.0,29.88,NNE,32,0.0,3.0,49,0.00,,,0.02,weatherlink.com 1.10,2013-08-17 00:57:00,
2013-08-16 20:12:00,83.7,64.0,29.88,NE,41,0.0,4.0,51,0.00,,,0.02,weatherlink.com 1.10,2013-08-17 01:12:00,
2013-08-16 20:27:00,81.6,63.0,29.89,NE,41,0.0,1.0,54,0.00,,,0.02,weatherlink.com 1.10,2013-08-17 01:27:00,
2013-08-16 20:42:00,78.9,65.0,29.89,NE,41,0.0,1.0,62,0.00,,,0.02,weatherlink.com 1.10,2013-08-17 01:42:00,
2013-08-16 20:57:00,76.8,65.0,29.90,NE,41,0.0,1.0,66,0.00,,,0.02,weatherlink.com 1.10,2013-08-17 01:57:00,
2013-08-16 21:12:00,75.6,65.0,29.91,NE,39,0.0,2.0,69,0.00,,,0.02,weatherlink.com 1.10,2013-08-17 02:12:00,
2013-08-16 21:27:00,74.4,65.0,29.91,NE,39,0.0,0.0,73,0.00,,,0.02,weatherlink.com 1.10,2013-08-17 02:27:00,
2013-08-16 21:42:00,73.4,65.0,29.92,NE,38,0.0,1.0,75,0.00,,,0.02,weatherlink.com 1.10,2013-08-17 02:42:00,
2013-08-16 21:57:00,72.5,65.0,29.93,NE,39,0.0,0.0,77,0.00,,,0.02,weatherlink.com 1.10,2013-08-17 02:57:00,
2013-08-16 22:12:00,71.9,65.0,29.94,NE,38,0.0,0.0,79,0.00,,,0.02,weatherlink.com 1.10,2013-08-17 03:12:00,
2013-08-16 22:27:00,72.4,64.0,29.95,NNE,22,0.0,1.0,75,0.00,,,0.02,weatherlink.com 1.10,2013-08-17 03:27:00,
2013-08-16 22:42:00,73.4,64.0,29.95,North,4,0.0,2.0,72,0.00,,,0.02,weatherlink.com 1.10,2013-08-17 03:42:00,
2013-08-16 22:57:00,72.4,64.0,29.95,North,4,0.0,0.0,76,0.00,,,0.02,weatherlink.com 1.10,2013-08-17 03:57:00,
2013-08-16 23:12:00,71.2,64.0,29.95,North,5,0.0,0.0,77,0.00,,,0.02,weatherlink.com 1.10,2013-08-17 04:12:00,
2013-08-16 23:27:00,70.1,64.0,29.96,North,4,0.0,1.0,80,0.00,,,0.02,weatherlink.com 1.10,2013-08-17 04:27:00,
2013-08-16 23:42:00,69.2,64.0,29.96,North,4,0.0,1.0,82,0.00,,,0.02,weatherlink.com 1.10,2013-08-17 04:42:00,
2013-08-16 23:57:00,69.2,63.0,29.97,NW,305,0.0,3.0,81,0.00,,,0.02,weatherlink.com 1.10,2013-08-17 04:57:00,